Tracking 20719 objects as of 25-May-2020
HD Live streaming from Space Station
objects crossing your sky now

IRIDIUM 33 DEB

Track IRIDIUM 33 DEB now!
10-day predictions


NORAD ID: 35749
Int'l Code: 1997-051SC
Perigee: 703.0 km
Apogee: 729.2 km
Inclination: 86.4 °
Period: 99.0 minutes
Semi major axis: 7087 km
RCS: 0.0016 m2 (small)
Launch date: September 14, 1997
Source: United States (US)
Launch site: TYURATAM MISSILE AND SPACE COMPLEX (TTMTR)

Note: This is SATELLITE DEBRIS
aabbcc
Your satellite tracking list
Your tracking list is empty




NASA's NSSDC Master Catalog

Two Line Element Set (TLE):
1 35749U 97051SC  20144.48155515  .00001289  00000-0  29294-3 0  9994
2 35749  86.3795 164.7657 0018532  62.1998 298.1085 14.55128856574079
Source of the keplerian elements: AFSPC